Location: B?jaj?g
(11.7167°N, 92.6667°E)
Time: 13:10:18
(UTC+00:00)

IUS-13 SRM-1 - Visible Passes

Search period start: 16 January 2021 00:00
Search period end: 26 January 2021 00:00
Orbit: 232 x 22853 km, 26.8° (Epoch: 15 January)

Date Brightness Start Highest point End Pass type
(mag) Time Alt. Az. Time Alt. Az. Time Alt. Az.
17 Jan 6.4 13:25:47 10° W 13:44:38 20° WSW 13:50:36 10° SSW visible
17 Jan 7.0 20:52:25 10° S 21:04:36 24° ESE 00:12:08 10° ENE visible
18 Jan 7.1 23:27:40 10° SW 23:53:21 72° SE 04:59:10 10° ENE visible
19 Jan 6.2 08:21:00 10° WNW 12:05:25 54° SW 12:14:36 10° SSE visible
20 Jan 6.8 21:49:17 10° SSW 22:04:59 45° SE 02:46:26 10° ENE visible
22 Jan 6.4 12:27:10 10° WNW 13:04:06 26° WSW 13:11:33 10° S visible
22 Jan 6.9 20:13:34 10° SSE 20:22:59 18° ESE 21:02:40 10° E visible
23 Jan 6.9 22:47:09 10° SW 23:07:27 68° SE 04:11:51 10° ENE visible
